Regional Weather Roundup
Issued by NWS Green Bay, WI

Home | Current Version | Previous Version | Text Only | Print | Product List | Glossary On
Versions: 1 2 3 4 5 6 7 8 9 10 11 12 13 14 15 16 17 18 19 20 21 22 23 24 25 26 27 28 29 30 31 32 33 34 35 36 37 38 39 40 41 42 43 44 45 46 47 48 49 50
000
ASUS43 KGRB 141700
RWRGRB

NORTH-CENTRAL AND NORTHEAST WISCONSIN REGIONAL WEATHER ROUNDUP
NATIONAL WEATHER SERVICE GREEN BAY WI
1100 AM CST THU DEC 14 2017

WIZ005-009-010>012-018-019-141800-
NORTH CENTRAL WISCONSIN

CITY           SKY/WX    TMP DP  RH WIND       PRES   REMARKS
IRONWOOD       FLURRIES  16  11  80 SW8       29.96F WCI   5
MANITOWISH WTR NOT AVBL
ARBOR VITAE    NOT AVBL
EAGLE RIVER    NOT AVBL
LAND O LAKES   NOT AVBL
RHINELANDER    CLOUDY    15  12  88 W8        29.94F WCI   4
PHILLIPS       NOT AVBL
ANTIGO         NOT AVBL
TOMAHAWK       NOT AVBL
MERRILL        NOT AVBL
$$

WIZ013-073-141800-
NORTHEAST WISCONSIN

CITY           SKY/WX    TMP DP  RH WIND       PRES   REMARKS
IRON MOUNTAIN  MOSUNNY   18  10  71 VRB5      29.94F
MARINETTE      SUNNY     20  14  77 W5        30.03F
$$

WIZ017-030-035>037-045-141800-
CENTRAL WISCONSIN

CITY           SKY/WX    TMP DP  RH WIND       PRES   REMARKS
MEDFORD        NOT AVBL
WAUSAU         CLOUDY    15  11  83 NW5       29.98F WCI   8
MOSINEE        CLOUDY    14  12  92 W5        30.01S WCI   6
MARSHFIELD     CLOUDY    15  12  88 W7        30.00S WCI   5
WISC RAPIDS    MOSUNNY   15  10  80 SW5       30.05S WCI   8
STEVENS POINT  NOT AVBL
WAUPACA        NOT AVBL
SHAWANO        NOT AVBL
CLINTONVILLE   NOT AVBL
WAUTOMA        MOSUNNY   23  17  78 CALM      30.06S
$$

WIZ038-039-048-051-141800-
FOX VALLEY

CITY           SKY/WX    TMP DP  RH WIND       PRES   REMARKS
NWS GREEN BAY  SUNNY     15   9  76 CALM      30.05S
APPLETON       MOSUNNY   14   7  73 W5        30.02S WCI   6
OSHKOSH        SUNNY     16  10  77 W5        30.04F WCI   9
FOND DU LAC    SUNNY     19   9  65 CALM      30.05F
$$

WIZ022-050-052-141800-
EAST CENTRAL WISCONSIN

CITY           SKY/WX    TMP DP  RH WIND       PRES   REMARKS
EPHRAIM        NOT AVBL
WASHINGTON ISL NOT AVBL
STURGEON BAY   SUNNY     21  11  65 W9        30.02F
MANITOWOC      SUNNY     23  12  62 W5        30.05F
SHEBOYGAN      SUNNY     16  10  77 NW5       30.04F WCI   9
$$

LMZ563-521-522-541>543-141800-
LAKESHORE

STATION/POSITION TIME  TEMP    WIND        PRES    VSBY  WAVE
                       AIR SEA DIR/SP/G                  HT/PER
                 (UTC) (F)     (DEG/KT/KT) (MB)    (MI)  (FT/S)
SHEBOYGAN LKSHOR 1600   15     280/  8/  9 1019.2R
KEWAUNEE LKSHORE 1630   17     300/  3/  5 1016.7F
NORTHPORT PIER   1640   21     290/  7/ 14 1015.9F
MENOMINEE LKSHOR 1624   16     220/  5/  6 1016.8
$$




USA.gov is the U.S. government's official web portal to all federal, state and local government web resources and services.